QPF
0.00 0.00 0.00 0.02 0.01 0.01 0.03 0.06 0.05 0.04 0.03 0.02 0.01 0.01 0.01 0.03 0.04 0.04 0.03 0.02 0.02 0.03 0.07 0.08 0.08 0.06 0.05 0.04 0.03 0.03 0.03 0.04 0.04 0.03 0.03 0.02 0.03 0.05 0.06 0.06 0.05 0.03 0.01
0.00 0.00 0.00 0.02 0.02 0.02 0.03 0.05 0.04 0.05 0.03 0.02 0.01 0.01 0.01 0.01 0.02 0.03 0.02 0.02 0.01 0.01 0.03 0.06 0.07 0.06 0.05 0.04 0.03 0.02 0.02 0.02 0.02 0.02 0.02 0.02 0.02 0.04 0.05 0.07 0.07 0.05 0.03
0.01 0.01 0.01 0.02 0.03 0.03 0.05 0.06 0.05 0.05 0.04 0.02 0.02 0.02 0.02 0.01 0.00 0.01 0.01 0.01 0.00 0.00 0.01 0.03 0.05 0.05 0.05 0.05 0.03 0.02 0.02 0.01 0.01 0.01 0.01 0.01 0.02 0.02 0.03 0.04 0.07 0.05 0.02
0.02 0.04 0.03 0.04 0.07 0.06 0.06 0.09 0.08 0.08 0.08 0.06 0.04 0.02 0.01 0.00 0.00 0.00 0.00 0.00 0.00 0.00 0.00 0.01 0.03 0.03 0.05 0.06 0.05 0.04 0.02 0.02 0.01 0.01 0.01 0.02 0.02 0.02 0.02 0.03 0.05 0.05 0.02
0.05 0.07 0.08 0.10 0.10 0.11 0.12 0.08 0.09 0.11 0.09 0.08 0.04 0.03 0.00 0.00 0.00 0.00 0.00 0.00 0.00 0.01 0.00 0.00 0.00 0.01 0.03 0.05 0.06 0.06 0.05 0.03 0.02 0.01 0.02 0.02 0.03 0.02 0.02 0.03 0.04 0.04 0.02
0.08 0.10 0.11 0.14 0.16 0.18 0.18 0.17 0.16 0.13 0.10 0.09 0.03 0.02 0.01 0.00 0.00 0.00 0.00 0.00 0.00 0.00 0.00 0.00 0.01 0.01 0.01 0.02 0.04 0.06 0.08 0.06 0.03 0.02 0.02 0.02 0.02 0.02 0.01 0.02 0.02 0.03 0.02
0.14 0.15 0.13 0.21 0.27 0.27 0.27 0.24 0.19 0.16 0.14 0.12 0.07 0.03 0.01 0.00 0.00 0.00 0.00 0.00 0.00 0.00 0.00 0.00 0.01 0.03 0.04 0.03 0.05 0.03 0.06 0.08 0.06 0.04 0.02 0.02 0.02 0.02 0.01 0.01 0.01 0.02 0.02
0.20 0.20 0.24 0.30 0.33 0.34 0.32 0.27 0.21 0.18 0.15 0.12 0.09 0.05 0.02 0.01 0.00 0.00 0.00 0.00 0.00 0.00 0.01 0.01 0.02 0.04 0.05 0.04 0.07 0.05 0.03 0.05 0.06 0.05 0.03 0.01 0.01 0.01 0.01 0.01 0.02 0.02 0.02
0.27 0.30 0.31 0.33 0.33 0.30 0.28 0.25 0.21 0.18 0.14 0.12 0.09 0.07 0.04 0.02 0.01 0.00 0.00 0.00 0.01 0.02 0.01 0.00 0.00 0.01 0.02 0.03 0.06 0.07 0.04 0.03 0.03 0.04 0.03 0.02 0.01 0.00 0.01 0.01 0.03 0.03 0.02
0.30 0.33 0.32 0.33 0.34 0.32 0.28 0.24 0.20 0.17 0.14 0.11 0.09 0.07 0.06 0.06 0.04 0.02 0.00 0.01 0.02 0.02 0.02 0.01 0.00 0.00 0.01 0.02 0.03 0.04 0.05 0.04 0.03 0.02 0.02 0.02 0.01 0.01 0.01 0.02 0.03 0.04 0.03
0.34 0.33 0.34 0.40 0.41 0.37 0.33 0.31 0.24 0.17 0.13 0.10 0.09 0.07 0.07 0.09 0.09 0.07 0.03 0.03 0.03 0.03 0.02 0.01 0.01 0.01 0.01 0.01 0.02 0.02 0.03 0.03 0.03 0.02 0.01 0.01 0.01 0.01 0.01 0.02 0.04 0.06 0.06
0.36 0.35 0.35 0.38 0.39 0.35 0.28 0.23 0.19 0.15 0.10 0.08 0.07 0.06 0.06 0.07 0.09 0.10 0.06 0.04 0.04 0.03 0.03 0.02 0.03 0.03 0.03 0.03 0.01 0.01 0.01 0.02 0.02 0.02 0.01 0.01 0.01 0.01 0.01 0.03 0.05 0.09 0.11
0.37 0.39 0.40 0.35 0.35 0.32 0.27 0.23 0.18 0.12 0.08 0.06 0.05 0.05 0.05 0.05 0.06 0.07 0.06 0.04 0.02 0.01 0.01 0.02 0.03 0.03 0.02 0.04 0.03 0.01 0.01 0.01 0.01 0.02 0.02 0.01 0.01 0.00 0.01 0.03 0.06 0.12 0.15
0.45 0.45 0.38 0.36 0.35 0.32 0.27 0.19 0.15 0.10 0.06 0.04 0.03 0.03 0.03 0.03 0.03 0.04 0.04 0.04 0.02 0.01 0.01 0.02 0.02 0.02 0.02 0.02 0.01 0.01 0.01 0.01 0.01 0.01 0.01 0.01 0.01 0.00 0.01 0.02 0.05 0.10 0.16
0.54 0.53 0.46 0.41 0.34 0.29 0.22 0.15 0.10 0.06 0.04 0.03 0.02 0.02 0.02 0.02 0.03 0.03 0.03 0.04 0.03 0.02 0.01 0.01 0.02 0.01 0.02 0.01 0.01 0.01 0.02 0.02 0.02 0.02 0.01 0.01 0.01 0.01 0.01 0.01 0.03 0.09 0.15
0.58 0.52 0.45 0.39 0.28 0.20 0.14 0.09 0.06 0.04 0.02 0.02 0.02 0.02 0.02 0.01 0.01 0.01 0.01 0.02 0.04 0.04 0.02 0.01 0.02 0.02 0.02 0.01 0.01 0.01 0.02 0.02 0.02 0.02 0.01 0.01 0.01 0.01 0.01 0.03 0.04 0.08 0.12
0.52 0.48 0.38 0.27 0.17 0.10 0.07 0.05 0.03 0.02 0.01 0.01 0.01 0.01 0.01 0.01 0.01 0.01 0.01 0.01 0.01 0.02 0.02 0.01 0.01 0.01 0.02 0.04 0.04 0.04 0.03 0.03 0.03 0.02 0.02 0.01 0.01 0.01 0.01 0.03 0.06 0.10 0.13
0.36 0.29 0.23 0.17 0.11 0.07 0.04 0.02 0.01 0.01 0.01 0.01 0.01 0.01 0.00 0.00 0.01 0.01 0.01 0.01 0.01 0.01 0.02 0.01 0.01 0.02 0.03 0.05 0.06 0.05 0.03 0.03 0.04 0.03 0.02 0.01 0.01 0.01 0.02 0.04 0.07 0.12 0.17
0.25 0.20 0.14 0.10 0.07 0.05 0.03 0.02 0.01 0.01 0.00 0.00 0.00 0.00 0.00 0.01 0.01 0.01 0.01 0.01 0.01 0.01 0.01 0.01 0.02 0.02 0.04 0.05 0.06 0.06 0.05 0.06 0.04 0.03 0.02 0.02 0.01 0.01 0.02 0.05 0.09 0.14 0.20
0.16 0.12 0.09 0.06 0.04 0.02 0.02 0.01 0.01 0.00 0.00 0.00 0.00 0.00 0.00 0.00 0.00 0.00 0.00 0.00 0.00 0.00 0.01 0.01 0.01 0.02 0.03 0.04 0.05 0.05 0.06 0.08 0.08 0.07 0.05 0.03 0.02 0.01 0.02 0.04 0.08 0.15 0.21
0.11 0.06 0.04 0.03 0.02 0.01 0.01 0.00 0.00 0.00 0.00 0.00 0.00 0.00 0.00 0.00 0.00 0.00 0.00 0.00 0.00 0.00 0.00 0.00 0.01 0.01 0.01 0.02 0.03 0.04 0.05 0.09 0.12 0.13 0.13 0.08 0.05 0.02 0.02 0.03 0.06 0.11 0.17
0.09 0.05 0.02 0.01 0.01 0.00 0.00 0.00 0.00 0.00 0.00 0.00 0.00 0.00 0.00 0.00 0.00 0.00 0.00 0.00 0.00 0.00 0.00 0.01 0.01 0.01 0.01 0.01 0.01 0.02 0.05 0.08 0.12 0.17 0.17 0.15 0.12 0.08 0.05 0.03 0.05 0.06 0.09
0.05 0.03 0.01 0.01 0.00 0.00 0.00 0.00 0.00 0.00 0.00 0.00 0.00 0.00 0.00 0.00 0.00 0.00 0.00 0.00 0.00 0.00 0.00 0.00 0.01 0.01 0.01 0.01 0.01 0.01 0.04 0.07 0.12 0.19 0.22 0.22 0.18 0.15 0.11 0.07 0.05 0.05 0.06
0.03 0.02 0.01 0.00 0.00 0.00 0.00 0.00 0.00 0.00 0.00 0.00 0.00 0.00 0.00 0.00 0.00 0.00 0.00 0.00 0.00 0.00 0.00 0.00 0.01 0.01 0.00 0.00 0.01 0.01 0.03 0.07 0.13 0.18 0.20 0.26 0.25 0.22 0.19 0.16 0.13 0.08 0.06
0.02 0.01 0.01 0.00 0.00 0.00 0.00 0.00 0.00 0.00 0.00 0.00 0.00 0.00 0.00 0.00 0.00 0.00 0.00 0.01 0.01 0.00 0.00 0.00 0.00 0.00 0.00 0.00 0.00 0.01 0.03 0.06 0.12 0.17 0.20 0.25 0.32 0.34 0.31 0.26 0.23 0.20 0.14
0.02 0.01 0.01 0.00 0.00 0.00 0.00 0.00 0.00 0.00 0.00 0.00 0.00 0.00 0.00 0.00 0.00 0.00 0.00 0.00 0.01 0.01 0.00 0.01 0.01 0.01 0.02 0.02 0.01 0.01 0.02 0.04 0.07 0.12 0.17 0.24 0.34 0.40 0.46 0.43 0.35 0.29 0.26
MSLP
1014.48 1014.58 1014.64 1014.67 1014.67 1014.66 1014.65 1014.63 1014.59 1014.52 1014.41 1014.25 1014.06 1013.84 1013.63 1013.46 1013.35 1013.32 1013.38 1013.50 1013.65 1013.82 1013.95 1014.05 1014.10 1014.11 1014.10 1014.10 1014.14 1014.24 1014.39 1014.60 1014.85 1015.12 1015.39 1015.65 1015.89 1016.13 1016.36 1016.60 1016.86 1017.13 1017.43
1014.07 1014.18 1014.26 1014.32 1014.35 1014.38 1014.39 1014.40 1014.39 1014.34 1014.24 1014.09 1013.89 1013.66 1013.41 1013.18 1013.01 1012.90 1012.88 1012.93 1013.04 1013.17 1013.31 1013.43 1013.51 1013.56 1013.59 1013.63 1013.69 1013.79 1013.95 1014.15 1014.39 1014.65 1014.92 1015.18 1015.42 1015.66 1015.89 1016.13 1016.38 1016.67 1016.98
1013.64 1013.77 1013.88 1013.98 1014.07 1014.15 1014.22 1014.28 1014.31 1014.30 1014.24 1014.10 1013.90 1013.64 1013.35 1013.06 1012.79 1012.59 1012.47 1012.43 1012.47 1012.57 1012.69 1012.81 1012.92 1013.02 1013.09 1013.16 1013.24 1013.36 1013.51 1013.69 1013.92 1014.16 1014.41 1014.66 1014.90 1015.12 1015.35 1015.59 1015.85 1016.14 1016.47
1013.16 1013.32 1013.49 1013.64 1013.79 1013.94 1014.08 1014.20 1014.29 1014.33 1014.30 1014.20 1014.00 1013.73 1013.39 1013.03 1012.68 1012.37 1012.15 1012.02 1011.97 1012.01 1012.10 1012.23 1012.36 1012.48 1012.58 1012.69 1012.79 1012.90 1013.05 1013.22 1013.42 1013.64 1013.86 1014.09 1014.31 1014.52 1014.73 1014.96 1015.23 1015.53 1015.89
1012.65 1012.85 1013.07 1013.29 1013.50 1013.71 1013.91 1014.09 1014.24 1014.33 1014.35 1014.27 1014.09 1013.81 1013.45 1013.04 1012.62 1012.23 1011.91 1011.68 1011.55 1011.52 1011.57 1011.67 1011.80 1011.94 1012.07 1012.19 1012.30 1012.43 1012.56 1012.72 1012.89 1013.08 1013.28 1013.47 1013.66 1013.85 1014.05 1014.27 1014.53 1014.84 1015.22
1012.11 1012.36 1012.63 1012.91 1013.18 1013.45 1013.69 1013.92 1014.11 1014.24 1014.29 1014.25 1014.10 1013.83 1013.47 1013.04 1012.58 1012.13 1011.73 1011.42 1011.21 1011.11 1011.11 1011.17 1011.28 1011.41 1011.55 1011.68 1011.80 1011.93 1012.06 1012.21 1012.36 1012.52 1012.69 1012.85 1013.00 1013.15 1013.32 1013.52 1013.77 1014.08 1014.47
1011.58 1011.87 1012.19 1012.51 1012.83 1013.12 1013.40 1013.65 1013.85 1014.01 1014.09 1014.08 1013.97 1013.74 1013.41 1013.00 1012.53 1012.06 1011.62 1011.25 1010.98 1010.80 1010.73 1010.74 1010.81 1010.91 1011.04 1011.17 1011.31 1011.44 1011.58 1011.72 1011.86 1012.01 1012.14 1012.26 1012.37 1012.48 1012.60 1012.76 1012.98 1013.28 1013.67
1011.05 1011.38 1011.74 1012.10 1012.44 1012.75 1013.04 1013.28 1013.48 1013.64 1013.74 1013.77 1013.70 1013.53 1013.26 1012.90 1012.48 1012.03 1011.58 1011.18 1010.85 1010.61 1010.47 1010.40 1010.42 1010.48 1010.58 1010.71 1010.85 1010.99 1011.15 1011.30 1011.44 1011.57 1011.68 1011.76 1011.82 1011.87 1011.93 1012.03 1012.19 1012.46 1012.83
1010.53 1010.90 1011.30 1011.68 1012.04 1012.35 1012.62 1012.84 1013.03 1013.18 1013.29 1013.35 1013.33 1013.24 1013.06 1012.78 1012.44 1012.04 1011.62 1011.21 1010.85 1010.55 1010.33 1010.19 1010.13 1010.14 1010.20 1010.31 1010.45 1010.61 1010.79 1010.96 1011.12 1011.24 1011.33 1011.37 1011.37 1011.35 1011.33 1011.35 1011.45 1011.65 1011.99
1010.00 1010.41 1010.84 1011.26 1011.62 1011.93 1012.18 1012.37 1012.53 1012.67 1012.78 1012.87 1012.92 1012.91 1012.82 1012.66 1012.41 1012.09 1011.73 1011.34 1010.96 1010.61 1010.32 1010.10 1009.96 1009.90 1009.92 1010.00 1010.14 1010.31 1010.51 1010.71 1010.88 1011.01 1011.08 1011.08 1011.02 1010.91 1010.81 1010.73 1010.74 1010.88 1011.16
1009.45 1009.90 1010.38 1010.82 1011.20 1011.50 1011.73 1011.91 1012.05 1012.17 1012.28 1012.40 1012.50 1012.57 1012.59 1012.53 1012.40 1012.17 1011.88 1011.52 1011.14 1010.76 1010.41 1010.11 1009.89 1009.76 1009.72 1009.76 1009.89 1010.07 1010.29 1010.52 1010.71 1010.84 1010.89 1010.85 1010.72 1010.54 1010.33 1010.16 1010.08 1010.13 1010.35
1008.89 1009.39 1009.90 1010.37 1010.77 1011.09 1011.32 1011.48 1011.60 1011.71 1011.83 1011.96 1012.11 1012.25 1012.36 1012.41 1012.38 1012.25 1012.03 1011.72 1011.34 1010.94 1010.54 1010.17 1009.88 1009.68 1009.58 1009.58 1009.69 1009.87 1010.10 1010.34 1010.54 1010.67 1010.70 1010.62 1010.43 1010.17 1009.87 1009.60 1009.43 1009.41 1009.57
1008.38 1008.91 1009.45 1009.95 1010.38 1010.71 1010.94 1011.10 1011.22 1011.32 1011.44 1011.59 1011.77 1011.96 1012.14 1012.28 1012.33 1012.29 1012.13 1011.87 1011.51 1011.10 1010.67 1010.25 1009.89 1009.62 1009.47 1009.43 1009.50 1009.67 1009.89 1010.13 1010.33 1010.45 1010.46 1010.34 1010.10 1009.77 1009.40 1009.05 1008.80 1008.71 1008.82
1007.98 1008.52 1009.08 1009.61 1010.06 1010.40 1010.64 1010.81 1010.92 1011.02 1011.13 1011.29 1011.48 1011.70 1011.93 1012.12 1012.24 1012.25 1012.15 1011.94 1011.61 1011.20 1010.75 1010.30 1009.90 1009.58 1009.36 1009.28 1009.31 1009.44 1009.64 1009.86 1010.04 1010.15 1010.13 1009.98 1009.70 1009.32 1008.90 1008.49 1008.19 1008.05 1008.12
1007.78 1008.32 1008.88 1009.41 1009.86 1010.21 1010.46 1010.62 1010.73 1010.82 1010.93 1011.07 1011.26 1011.49 1011.72 1011.94 1012.09 1012.15 1012.10 1011.92 1011.62 1011.23 1010.78 1010.32 1009.88 1009.52 1009.26 1009.13 1009.11 1009.20 1009.35 1009.54 1009.69 1009.76 1009.72 1009.55 1009.25 1008.84 1008.39 1007.96 1007.63 1007.46 1007.51
1007.87 1008.38 1008.90 1009.40 1009.83 1010.17 1010.41 1010.56 1010.66 1010.74 1010.83 1010.95 1011.12 1011.33 1011.55 1011.77 1011.93 1012.01 1011.99 1011.84 1011.57 1011.21 1010.78 1010.32 1009.87 1009.48 1009.18 1009.00 1008.93 1008.96 1009.06 1009.19 1009.30 1009.34 1009.27 1009.08 1008.78 1008.37 1007.93 1007.50 1007.17 1007.00 1007.04
1008.29 1008.74 1009.20 1009.64 1010.02 1010.32 1010.53 1010.65 1010.73 1010.79 1010.85 1010.95 1011.09 1011.27 1011.47 1011.66 1011.82 1011.90 1011.89 1011.76 1011.53 1011.19 1010.79 1010.34 1009.89 1009.49 1009.16 1008.93 1008.80 1008.76 1008.80 1008.87 1008.92 1008.92 1008.84 1008.65 1008.35 1007.97 1007.56 1007.17 1006.87 1006.72 1006.77
1009.00 1009.37 1009.76 1010.11 1010.41 1010.64 1010.80 1010.89 1010.93 1010.97 1011.00 1011.07 1011.18 1011.33 1011.50 1011.66 1011.80 1011.88 1011.87 1011.76 1011.55 1011.25 1010.87 1010.44 1010.00 1009.59 1009.24 1008.96 1008.77 1008.67 1008.63 1008.63 1008.63 1008.59 1008.48 1008.29 1008.02 1007.69 1007.33 1007.00 1006.76 1006.65 1006.73
1009.90 1010.19 1010.48 1010.74 1010.94 1011.10 1011.19 1011.23 1011.24 1011.25 1011.27 1011.32 1011.41 1011.53 1011.68 1011.82 1011.93 1011.99 1011.98 1011.88 1011.69 1011.41 1011.05 1010.65 1010.22 1009.80 1009.43 1009.11 1008.87 1008.69 1008.58 1008.51 1008.45 1008.37 1008.24 1008.06 1007.83 1007.55 1007.26 1007.01 1006.84 1006.80 1006.92
1010.85 1011.06 1011.26 1011.42 1011.53 1011.60 1011.63 1011.63 1011.62 1011.61 1011.63 1011.68 1011.76 1011.87 1012.00 1012.12 1012.22 1012.27 1012.25 1012.15 1011.96 1011.69 1011.35 1010.96 1010.54 1010.12 1009.72 1009.37 1009.07 1008.84 1008.66 1008.51 1008.39 1008.27 1008.13 1007.96 1007.76 1007.54 1007.33 1007.16 1007.07 1007.10 1007.28
1011.68 1011.84 1011.96 1012.04 1012.07 1012.07 1012.05 1012.02 1011.99 1011.99 1012.02 1012.08 1012.18 1012.30 1012.43 1012.55 1012.63 1012.67 1012.64 1012.53 1012.34 1012.07 1011.73 1011.35 1010.93 1010.50 1010.09 1009.71 1009.36 1009.07 1008.83 1008.63 1008.45 1008.29 1008.13 1007.96 1007.79 1007.62 1007.49 1007.40 1007.39 1007.50 1007.73
1012.26 1012.39 1012.47 1012.49 1012.48 1012.44 1012.39 1012.35 1012.33 1012.35 1012.40 1012.50 1012.63 1012.77 1012.91 1013.03 1013.10 1013.12 1013.08 1012.95 1012.75 1012.47 1012.14 1011.75 1011.33 1010.89 1010.47 1010.06 1009.68 1009.35 1009.05 1008.79 1008.57 1008.37 1008.19 1008.02 1007.86 1007.74 1007.66 1007.64 1007.71 1007.88 1008.16
1012.52 1012.66 1012.72 1012.73 1012.70 1012.66 1012.61 1012.58 1012.59 1012.64 1012.74 1012.88 1013.04 1013.21 1013.36 1013.48 1013.55 1013.56 1013.49 1013.34 1013.12 1012.83 1012.49 1012.09 1011.67 1011.23 1010.80 1010.37 1009.98 1009.61 1009.28 1008.98 1008.71 1008.47 1008.26 1008.08 1007.93 1007.83 1007.78 1007.81 1007.93 1008.16 1008.49
1012.47 1012.64 1012.73 1012.76 1012.75 1012.73 1012.71 1012.72 1012.77 1012.87 1013.01 1013.19 1013.38 1013.57 1013.73 1013.85 1013.91 1013.90 1013.80 1013.63 1013.39 1013.08 1012.73 1012.33 1011.91 1011.47 1011.03 1010.61 1010.20 1009.82 1009.46 1009.13 1008.83 1008.56 1008.32 1008.11 1007.95 1007.85 1007.82 1007.87 1008.02 1008.27 1008.62
1012.21 1012.42 1012.56 1012.65 1012.69 1012.72 1012.76 1012.82 1012.92 1013.06 1013.23 1013.43 1013.64 1013.83 1013.99 1014.10 1014.14 1014.10 1013.98 1013.79 1013.53 1013.21 1012.84 1012.44 1012.03 1011.60 1011.17 1010.76 1010.35 1009.97 1009.60 1009.25 1008.92 1008.62 1008.35 1008.11 1007.93 1007.81 1007.76 1007.81 1007.96 1008.21 1008.56
1011.84 1012.12 1012.33 1012.48 1012.61 1012.71 1012.81 1012.93 1013.07 1013.24 1013.43 1013.64 1013.84 1014.01 1014.15 1014.22 1014.23 1014.17 1014.02 1013.81 1013.54 1013.21 1012.85 1012.47 1012.06 1011.66 1011.25 1010.85 1010.45 1010.07 1009.70 1009.34 1009.00 1008.67 1008.37 1008.10 1007.89 1007.73 1007.66 1007.67 1007.79 1008.01 1008.33
Thickness
5784 5782 5779 5776 5776 5777 5775 5773 5773 5773 5772 5773 5772 5772 5772 5770 5768 5767 5766 5762 5759 5756 5754 5753 5753 5752 5751 5750 5749 5748 5746 5744 5743 5741 5739 5737 5735 5733 5731 5729 5726 5724 5721
5781 5779 5777 5774 5774 5773 5773 5772 5772 5770 5771 5772 5771 5771 5769 5770 5769 5767 5767 5766 5761 5759 5756 5755 5754 5753 5752 5751 5750 5748 5747 5745 5743 5741 5739 5737 5735 5734 5732 5730 5728 5725 5722
5777 5775 5774 5773 5772 5771 5769 5767 5768 5767 5767 5768 5768 5768 5768 5767 5768 5766 5765 5765 5765 5762 5759 5756 5755 5753 5752 5751 5750 5748 5747 5745 5743 5741 5739 5738 5736 5734 5733 5731 5729 5726 5723
5773 5770 5770 5770 5768 5766 5766 5764 5763 5763 5762 5762 5763 5765 5767 5766 5765 5764 5764 5764 5763 5763 5762 5758 5755 5753 5752 5751 5750 5748 5746 5745 5743 5741 5739 5738 5736 5734 5733 5731 5729 5727 5724
5769 5766 5766 5765 5762 5761 5760 5759 5760 5757 5755 5756 5758 5760 5764 5765 5764 5764 5763 5762 5761 5759 5760 5759 5755 5753 5752 5750 5749 5748 5746 5744 5742 5740 5739 5737 5736 5734 5733 5731 5730 5728 5725
5766 5763 5761 5759 5757 5755 5753 5752 5750 5750 5749 5749 5753 5756 5757 5761 5762 5763 5761 5762 5760 5758 5758 5757 5755 5755 5751 5749 5747 5746 5744 5743 5741 5740 5738 5737 5735 5734 5733 5732 5730 5728 5726
5762 5759 5758 5756 5752 5749 5747 5746 5745 5743 5743 5743 5743 5746 5752 5757 5758 5757 5758 5757 5757 5755 5752 5751 5751 5750 5750 5747 5745 5744 5742 5741 5739 5738 5737 5736 5735 5734 5733 5732 5730 5728 5726
5756 5755 5752 5750 5747 5743 5741 5740 5739 5737 5738 5738 5735 5734 5737 5745 5748 5753 5751 5750 5750 5750 5748 5748 5745 5743 5744 5744 5744 5741 5740 5738 5737 5735 5734 5734 5733 5733 5732 5731 5730 5728 5726
5751 5748 5746 5743 5739 5737 5735 5734 5733 5730 5729 5732 5733 5729 5727 5729 5735 5743 5743 5743 5741 5741 5742 5743 5741 5740 5739 5739 5739 5737 5734 5733 5732 5732 5731 5730 5730 5730 5730 5729 5729 5728 5726
5745 5743 5739 5736 5732 5730 5729 5728 5727 5726 5725 5724 5726 5727 5726 5726 5721 5726 5734 5737 5736 5733 5734 5735 5737 5737 5735 5734 5732 5730 5728 5727 5726 5726 5726 5725 5725 5726 5727 5727 5727 5727 5726
5740 5737 5733 5730 5726 5724 5722 5721 5721 5720 5720 5719 5720 5721 5720 5719 5717 5714 5718 5722 5726 5729 5730 5730 5731 5731 5730 5728 5726 5725 5722 5720 5720 5720 5720 5720 5720 5721 5723 5724 5725 5725 5725
5733 5731 5727 5724 5720 5718 5717 5716 5715 5715 5715 5714 5714 5715 5714 5712 5711 5710 5710 5713 5715 5720 5722 5723 5724 5725 5724 5722 5720 5716 5714 5714 5713 5714 5714 5714 5714 5716 5718 5720 5722 5723 5724
5725 5722 5719 5717 5714 5712 5711 5710 5708 5709 5708 5707 5707 5709 5710 5709 5708 5706 5705 5707 5709 5715 5716 5718 5719 5718 5718 5715 5713 5709 5708 5708 5707 5707 5707 5708 5709 5710 5714 5716 5718 5720 5721
5717 5714 5710 5708 5707 5705 5703 5701 5701 5701 5700 5701 5702 5701 5702 5703 5702 5701 5699 5698 5700 5706 5709 5709 5711 5712 5710 5708 5707 5703 5705 5703 5701 5700 5700 5701 5703 5705 5708 5711 5714 5717 5718
5708 5704 5701 5699 5696 5695 5694 5692 5693 5693 5693 5694 5695 5695 5695 5695 5694 5694 5693 5692 5690 5691 5696 5701 5701 5703 5702 5702 5700 5700 5700 5698 5695 5694 5694 5695 5697 5700 5703 5706 5710 5713 5714
5695 5692 5690 5688 5685 5685 5684 5683 5684 5685 5685 5685 5686 5685 5684 5687 5686 5686 5686 5685 5685 5683 5685 5692 5692 5695 5694 5695 5696 5696 5696 5693 5690 5689 5688 5688 5691 5694 5698 5702 5705 5708 5710
5681 5679 5677 5675 5674 5674 5674 5674 5677 5676 5676 5676 5676 5676 5674 5674 5676 5678 5678 5677 5677 5676 5675 5681 5686 5688 5685 5686 5689 5690 5691 5690 5689 5685 5682 5682 5684 5688 5692 5695 5699 5702 5704
5666 5665 5663 5662 5662 5662 5663 5664 5666 5667 5667 5666 5666 5665 5664 5665 5664 5666 5666 5667 5668 5666 5666 5666 5672 5676 5677 5679 5681 5682 5685 5686 5685 5681 5678 5677 5678 5681 5684 5688 5692 5695 5697
5650 5648 5649 5648 5649 5650 5651 5654 5656 5656 5656 5656 5655 5654 5653 5654 5653 5654 5654 5656 5659 5661 5660 5660 5663 5666 5669 5671 5672 5674 5676 5676 5678 5677 5673 5672 5672 5673 5676 5680 5684 5687 5689
5635 5635 5635 5636 5637 5640 5641 5643 5645 5645 5645 5643 5642 5643 5643 5642 5641 5642 5644 5644 5646 5648 5650 5653 5654 5656 5657 5659 5661 5662 5665 5666 5668 5671 5669 5668 5666 5666 5668 5671 5675 5677 5680
5624 5624 5624 5625 5627 5629 5631 5632 5634 5634 5633 5632 5631 5631 5629 5627 5624 5626 5630 5631 5633 5635 5639 5641 5642 5643 5643 5644 5646 5649 5652 5656 5658 5660 5660 5661 5662 5663 5662 5662 5664 5666 5668
5614 5614 5615 5616 5617 5619 5616 5619 5623 5624 5623 5622 5621 5621 5621 5619 5616 5615 5614 5614 5615 5618 5620 5622 5626 5625 5625 5628 5631 5636 5640 5641 5644 5648 5648 5651 5653 5654 5655 5656 5655 5656 5656
5605 5605 5607 5608 5607 5605 5605 5608 5612 5615 5614 5612 5611 5612 5614 5610 5609 5611 5609 5607 5606 5603 5601 5604 5608 5607 5610 5613 5615 5621 5625 5628 5630 5635 5637 5639 5642 5644 5647 5648 5646 5645 5645
5600 5599 5600 5600 5599 5597 5596 5599 5602 5605 5605 5602 5602 5602 5601 5599 5596 5597 5601 5601 5599 5597 5595 5595 5594 5594 5596 5596 5600 5607 5612 5618 5622 5624 5625 5627 5631 5633 5637 5638 5638 5637 5636
5595 5594 5594 5594 5593 5589 5588 5590 5593 5597 5596 5594 5593 5591 5592 5590 5582 5584 5590 5589 5587 5586 5584 5581 5579 5580 5580 5582 5585 5595 5600 5606 5609 5612 5613 5615 5620 5623 5626 5629 5630 5629 5628
5592 5591 5589 5589 5588 5585 5581 5583 5586 5594 5591 5590 5586 5584 5577 5576 5572 5572 5578 5577 5574 5572 5573 5575 5573 5573 5575 5576 5576 5580 5585 5590 5593 5598 5603 5605 5609 5612 5615 5619 5621 5621 5620